• în România
  • Lista ţărilor
  • Pe 7 zile
  • Temperatura apei
  • Hartă satelitară
  • Meteo pe hartă
  • Widget-uri
  • user-avatar
    Intrare

    Meteo pe oră la Kovalevka

    Astăzi, 26 Septembrie, Miercuri

    Timp Temperatura Precipitaţii Vânt Presiune Umiditate
    00:00 +5°C° 0 mm 4 m/s 746 mmHg 78%
    01:00 +5°C° 0 mm 4 m/s 746 mmHg 80%
    02:00 +5°C° 0 mm 4 m/s 747 mmHg 82%
    03:00 +4°C° 0 mm 3 m/s 747 mmHg 84%
    04:00 +4°C° 0 mm 3 m/s 748 mmHg 86%
    05:00 +3°C° 0 mm 4 m/s 748 mmHg 87%
    06:00 +3°C° 0 mm 4 m/s 749 mmHg 88%
    07:00 +4°C° 0 mm 4 m/s 750 mmHg 84%
    08:00 +4°C° 0 mm 4 m/s 750 mmHg 80%
    09:00 +5°C° 0 mm 5 m/s 751 mmHg 75%
    10:00 +6°C° 0 mm 5 m/s 751 mmHg 69%
    11:00 +7°C° 0 mm 5 m/s 752 mmHg 63%
    12:00 +8°C° 0 mm 5 m/s 752 mmHg 57%
    13:00 +9°C° 0 mm 5 m/s 752 mmHg 55%
    14:00 +9°C° 0 mm 5 m/s 752 mmHg 53%
    15:00 +9°C° 0 mm 5 m/s 752 mmHg 51%
    16:00 +8°C° 0 mm 4 m/s 752 mmHg 55%
    17:00 +8°C° 0 mm 4 m/s 751 mmHg 59%
    18:00 +8°C° 0 mm 3 m/s 751 mmHg 63%
    19:00 +6°C° 0 mm 4 m/s 751 mmHg 64%
    20:00 +6°C° 0 mm 4 m/s 751 mmHg 65%
    21:00 +5°C° 0 mm 5 m/s 751 mmHg 67%
    22:00 +6°C° 0 mm 5 m/s 750 mmHg 66%
    23:00 +5°C° 0 mm 6 m/s 749 mmHg 65%

    Mâine, 27 Septembrie, Joi

    Timp Temperatura Precipitaţii Vânt Presiune Umiditate
    00:00 +5°C° 0 mm 7 m/s 749 mmHg 65%
    01:00 +5°C° 0 mm 7 m/s 748 mmHg 64%
    02:00 +5°C° 0 mm 8 m/s 747 mmHg 62%
    03:00 +5°C° 0 mm 9 m/s 746 mmHg 61%
    04:00 +5°C° 0.6 mm 9 m/s 745 mmHg 65%
    05:00 +5°C° 0.6 mm 10 m/s 743 mmHg 68%
    06:00 +3°C° 0.6 mm 11 m/s 742 mmHg 72%
    07:00 +4°C° 0.7 mm 11 m/s 742 mmHg 75%
    08:00 +4°C° 0.7 mm 11 m/s 741 mmHg 78%
    09:00 +4°C° 0.7 mm 11 m/s 740 mmHg 81%
    10:00 +4°C° 0.4 mm 11 m/s 740 mmHg 81%
    11:00 +6°C° 0.4 mm 10 m/s 740 mmHg 82%
    12:00 +6°C° 0.4 mm 10 m/s 740 mmHg 83%
    13:00 +7°C° 0.2 mm 10 m/s 740 mmHg 80%
    14:00 +8°C° 0.2 mm 9 m/s 740 mmHg 77%
    15:00 +8°C° 0.2 mm 9 m/s 740 mmHg 73%
    16:00 +9°C° 0.1 mm 8 m/s 740 mmHg 73%
    17:00 +9°C° 0.1 mm 7 m/s 741 mmHg 72%
    18:00 +9°C° 0.1 mm 6 m/s 741 mmHg 71%
    19:00 +8°C° 0 mm 6 m/s 742 mmHg 72%
    20:00 +7°C° 0 mm 5 m/s 742 mmHg 73%
    21:00 +7°C° 0 mm 5 m/s 743 mmHg 74%
    22:00 +7°C° 0 mm 5 m/s 743 mmHg 76%
    23:00 +6°C° 0 mm 5 m/s 743 mmHg 78%

    Poimâine, 28 Septembrie, Vineri

    Timp Temperatura Precipitaţii Vânt Presiune Umiditate
    00:00 +6°C° 0 mm 5 m/s 743 mmHg 79%
    01:00 +6°C° 0 mm 5 m/s 744 mmHg 81%
    02:00 +6°C° 0 mm 5 m/s 744 mmHg 82%
    03:00 +5°C° 0 mm 5 m/s 744 mmHg 84%
    04:00 +5°C° 0 mm 5 m/s 744 mmHg 85%
    05:00 +5°C° 0 mm 5 m/s 744 mmHg 86%
    06:00 +5°C° 0 mm 5 m/s 743 mmHg 87%
    07:00 +5°C° 0 mm 7 m/s 743 mmHg 82%
    08:00 +7°C° 0 mm 8 m/s 742 mmHg 77%
    09:00 +8°C° 0 mm 9 m/s 742 mmHg 73%
    10:00 +11°C° 0 mm 10 m/s 741 mmHg 70%
    11:00 +12°C° 0 mm 10 m/s 741 mmHg 68%
    12:00 +14°C° 0 mm 11 m/s 740 mmHg 66%
    13:00 +14°C° 0 mm 11 m/s 740 mmHg 65%
    14:00 +16°C° 0 mm 11 m/s 739 mmHg 65%
    15:00 +17°C° 0 mm 11 m/s 739 mmHg 64%
    16:00 +16°C° 0 mm 11 m/s 739 mmHg 68%
    17:00 +16°C° 0 mm 10 m/s 738 mmHg 72%
    18:00 +14°C° 0 mm 10 m/s 738 mmHg 76%
    19:00 +13°C° 0.3 mm 9 m/s 739 mmHg 76%
    20:00 +12°C° 0.3 mm 9 m/s 739 mmHg 75%
    21:00 +11°C° 0.3 mm 8 m/s 740 mmHg 75%
    22:00 +10°C° 0 mm 7 m/s 741 mmHg 77%
    23:00 +9°C° 0 mm 6 m/s 742 mmHg 78%

    29 Septembrie, Sâmbătă

    Timp Temperatura Precipitaţii Vânt Presiune Umiditate
    00:00 +7°C° 0 mm 5 m/s 742 mmHg 80%
    01:00 +6°C° 0 mm 5 m/s 743 mmHg 82%
    02:00 +5°C° 0 mm 4 m/s 744 mmHg 84%
    03:00 +5°C° 0 mm 3 m/s 745 mmHg 85%
    04:00 +4°C° 0 mm 3 m/s 745 mmHg 87%
    05:00 +3°C° 0 mm 3 m/s 746 mmHg 88%
    06:00 +3°C° 0 mm 3 m/s 746 mmHg 89%
    07:00 +4°C° 0 mm 3 m/s 747 mmHg 83%
    08:00 +4°C° 0 mm 3 m/s 747 mmHg 77%
    09:00 +5°C° 0 mm 3 m/s 748 mmHg 71%
    10:00 +7°C° 0 mm 3 m/s 748 mmHg 63%
    11:00 +8°C° 0 mm 3 m/s 748 mmHg 56%
    12:00 +9°C° 0 mm 3 m/s 748 mmHg 48%
    13:00 +9°C° 0 mm 3 m/s 748 mmHg 48%
    14:00 +9°C° 0 mm 3 m/s 748 mmHg 47%
    15:00 +10°C° 0 mm 3 m/s 749 mmHg 47%
    16:00 +9°C° 0 mm 3 m/s 749 mmHg 51%
    17:00 +8°C° 0 mm 2 m/s 749 mmHg 55%
    18:00 +8°C° 0 mm 2 m/s 749 mmHg 58%
    19:00 +7°C° 0 mm 2 m/s 750 mmHg 60%
    20:00 +7°C° 0 mm 2 m/s 750 mmHg 62%
    21:00 +6°C° 0 mm 2 m/s 751 mmHg 64%
    22:00 +5°C° 0 mm 2 m/s 751 mmHg 66%
    23:00 +5°C° 0 mm 2 m/s 751 mmHg 68%

    30 Septembrie, Duminică

    Timp Temperatura Precipitaţii Vânt Presiune Umiditate
    00:00 +4°C° 0 mm 2 m/s 752 mmHg 70%
    01:00 +4°C° 0 mm 2 m/s 752 mmHg 71%
    02:00 +3°C° 0 mm 2 m/s 752 mmHg 73%
    03:00 +3°C° 0 mm 2 m/s 753 mmHg 74%
    04:00 +2°C° 0 mm 2 m/s 753 mmHg 75%
    05:00 +2°C° 0 mm 2 m/s 753 mmHg 77%
    06:00 +2°C° 0 mm 2 m/s 753 mmHg 78%
    07:00 +3°C° 0 mm 2 m/s 754 mmHg 73%
    08:00 +4°C° 0 mm 2 m/s 754 mmHg 68%
    09:00 +5°C° 0 mm 2 m/s 754 mmHg 63%
    10:00 +6°C° 0 mm 2 m/s 754 mmHg 57%
    11:00 +8°C° 0 mm 2 m/s 754 mmHg 52%
    12:00 +9°C° 0 mm 3 m/s 754 mmHg 46%
    13:00 +10°C° 0 mm 3 m/s 754 mmHg 46%
    14:00 +10°C° 0 mm 3 m/s 754 mmHg 46%
    15:00 +11°C° 0 mm 4 m/s 753 mmHg 46%
    16:00 +10°C° 0 mm 3 m/s 753 mmHg 52%
    17:00 +9°C° 0 mm 3 m/s 753 mmHg 58%
    18:00 +8°C° 0 mm 3 m/s 753 mmHg 64%
    19:00 +7°C° 0 mm 3 m/s 753 mmHg 66%
    20:00 +7°C° 0 mm 3 m/s 753 mmHg 69%
    21:00 +5°C° 0 mm 3 m/s 753 mmHg 71%
    22:00 +5°C° 0 mm 4 m/s 753 mmHg 72%
    23:00 +5°C° 0 mm 4 m/s 753 mmHg 73%

    1 Octombrie, Luni

    Timp Temperatura Precipitaţii Vânt Presiune Umiditate
    00:00 +5°C° 0 mm 4 m/s 753 mmHg 74%
    01:00 +4°C° 0 mm 4 m/s 753 mmHg 75%
    02:00 +4°C° 0 mm 4 m/s 753 mmHg 76%
    03:00 +4°C° 0 mm 4 m/s 753 mmHg 78%
    04:00 +4°C° 0 mm 4 m/s 753 mmHg 79%
    05:00 +3°C° 0 mm 4 m/s 753 mmHg 80%
    06:00 +3°C° 0 mm 4 m/s 753 mmHg 82%
    07:00 +4°C° 0 mm 4 m/s 753 mmHg 78%
    08:00 +5°C° 0 mm 4 m/s 753 mmHg 73%
    09:00 +6°C° 0 mm 4 m/s 753 mmHg 69%
    10:00 +8°C° 0 mm 4 m/s 753 mmHg 64%
    11:00 +9°C° 0 mm 5 m/s 753 mmHg 59%
    12:00 +12°C° 0 mm 5 m/s 753 mmHg 53%
    13:00 +12°C° 0 mm 5 m/s 752 mmHg 52%
    14:00 +12°C° 0 mm 4 m/s 752 mmHg 51%
    15:00 +13°C° 0 mm 4 m/s 752 mmHg 50%
    16:00 +12°C° 0 mm 4 m/s 752 mmHg 54%
    17:00 +10°C° 0 mm 3 m/s 752 mmHg 59%
    18:00 +9°C° 0 mm 2 m/s 751 mmHg 64%
    19:00 +9°C° 0 mm 2 m/s 752 mmHg 65%
    20:00 +8°C° 0 mm 2 m/s 752 mmHg 66%
    21:00 +7°C° 0 mm 2 m/s 752 mmHg 67%
    22:00 +7°C° 0 mm 2 m/s 752 mmHg 66%
    23:00 +7°C° 0 mm 2 m/s 752 mmHg 65%
    Arată mai mult